星链-33922 (STARLINK-33922)

导读

STARLINK-33922是美国SpaceX公司星链(Starlink)星座的卫星,于2025年4月28日发射升空。星链项目旨在依托近地轨道部署大规模卫星星座,为全球偏远、欠发达地区提供高速低延迟宽带互联网服务,该卫星已加入正在持续扩张的星链网络,助力填补全球数字鸿沟,提升卫星互联网覆盖与服务能力。

基本信息
目录编号:
63698
目录名称:
STARLINK-33922
国际标识:
2025-087B
轨道中心:
EARTH
卫星名称:
星链-33922
卫星全名:
星链-33922 (STARLINK-33922)
卫星状态:
在轨 (已飞行494 天)
发射日期:
2025-04-28 UTC
国别 :
美国 (US)
星等 :
--
轨道信息
数据来源 国际轨道数据 AOE轨道数据
星历时间 2026-09-03T23:19:03+0800
16小时前
查看轨道信息
2026-08-30T20:00:00+0800
4天前
查看轨道信息
半长轴 6840.839km 6840.865km
偏心率 0.0001448 0.0001567
轨道倾角 53.160° 53.161°
近地点辐角 91.694° 95.040°
升交点赤经 112.347° 131.694°
平近点角 268.423° 73.540°
近地点 461.711km 461.656km
远地点 463.693km 463.8km
周期 93.848分钟 93.848分钟
每日圈数 15.344007 15.34392
详细信息
固有亮度:
5
最大亮度:
2.5
卫星平台:
Starlink V1.0
覆盖范围:
全球
运营商:
太空探索技术公司
运营商所在国:
美国
制造商(研发单位):
太空探索技术公司
制造商所在国:
美国
使用方式:
暂无
卫星简介
Starlink 计划是 SpaceX 推出的全球卫星互联网项目,通过发射低轨道卫星,为全球尤其是偏远地区提供高速、低延迟的互联网服务。自 2019 年起,Starlink 已部署数千颗卫星,旨在缩小全球数字鸿沟,推动互联网普及。该项目还为军事、航空等行业提供通信支持,带来广泛经济效益。
2D轨道图
3D轨道图
轨道高度分析图
轨道倾角分析图
轨道综合分析图
查看轨道综合分析图